St. Croix, VI

6:43 AM AST on December 11, 2017 (GMT -0400)
Henry E Rohlsen

Weather History for TISX - July, 2013

Change the Weather History Date:

Tuesday, July 2, 2013

  Actual Average Record
Temperature  
Mean Temperature 82 °F 84 °F  
Max Temperature 87 °F 89 °F 92 °F (1994)
Min Temperature 76 °F 79 °F 73 °F (2011)
Degree Days  
Heating Degree Days 0 0  
Month to date heating degree days 0 0  
Since 1 June heating degree days 0 0  
Since 1 July heating degree days 0 0  
Cooling Degree Days 17 19  
Month to date cooling degree days 36 38  
Year to date cooling degree days 2542 2731  
Since 1 June cooling degree days 481 578  
Growing Degree Days 30 (Base 50)    
Moisture  
Dew Point 72 °F    
Average Humidity 77    
Maximum Humidity 88    
Minimum Humidity 65    
Precipitation  
Precipitation 0.32 in 0.08 in 0.90 in (1978)
Month to date precipitation 0.33 0.16  
Year to date precipitation 15.44 14.10  
Sea Level Pressure  
Sea Level Pressure 30.07 in    
Wind  
Wind Speed 10 mph (ENE)    
Max Wind Speed 29 mph    
Max Gust Speed 35 mph    
Visibility 9 miles    
Events Rain    
T = Trace of Precipitation, MM = Missing Value Source: NWS Daily Summary

Daily Weather History Graph

Daily Weather History Graph

Search for Another Location

Airport or City:

Trip Planner

Search our weather history database for the weather conditions in past years. The results will help you decide how hot, cold, wet, or windy it might be!

Date:

Astronomy

Jul. 02, 2013 Rise Set
Actual Time 5:48 AM AST 6:58 PM AST
Civil Twilight 5:24 AM AST 7:22 PM AST
Nautical Twilight 4:55 AM AST 7:50 PM AST
Astronomical Twilight 4:26 AM AST 8:20 PM AST
Moon 1:25 AM AST (7/2) 2:27 PM AST (7/2)
Length of Visible Light 13h 58m
Length of Day
13h 10m
Waning Crescent, 26% of the Moon is Illuminated
Jul 2
Waning Crescent
Jul 8
New
Jul 15
First Quarter
Jul 22
Full
Jul 29
Last Quarter

Hourly Weather History & Observations

Time (AST) Temp. Heat Index Dew Point Humidity Pressure Visibility Wind Dir Wind Speed Gust Speed Precip Events Conditions
12:53 AM 78.1 °F - 73.0 °F 84% 30.06 in 10.0 mi ENE 4.6 mph - N/A   Clear
1:53 AM 79.0 °F - 73.0 °F 82% 30.04 in 10.0 mi ENE 4.6 mph - N/A   Clear
2:53 AM 78.1 °F - 73.0 °F 84% 30.04 in 10.0 mi NE 4.6 mph - 0.00 in Rain Light Rain
4:53 AM 77.0 °F - 73.0 °F 88% 30.05 in 10.0 mi NE 5.8 mph - N/A   Clear
5:53 AM 78.1 °F - 73.0 °F 84% 30.07 in 8.0 mi East 11.5 mph 16.1 mph 0.00 in Rain Light Rain
6:53 AM 77.0 °F - 73.0 °F 88% 30.09 in 10.0 mi East 11.5 mph - 0.04 in   Mostly Cloudy
7:53 AM 79.0 °F - 73.9 °F 84% 30.11 in 10.0 mi NE 10.4 mph 19.6 mph N/A   Scattered Clouds
8:53 AM 79.0 °F - 72.0 °F 79% 30.11 in 10.0 mi NNE 4.6 mph - 0.00 in   Overcast
9:59 AM 77.0 °F - 71.6 °F 83% 30.12 in 1.8 mi NE 10.4 mph 27.6 mph 0.07 in Rain Heavy Rain
10:06 AM 78.8 °F - 73.4 °F 83% 30.12 in 10.0 mi NE 9.2 mph - 0.08 in Rain Light Rain
10:53 AM 86.0 °F 93.0 °F 73.0 °F 65% 30.11 in 10.0 mi ENE 15.0 mph 20.7 mph 0.08 in   Mostly Cloudy
11:53 AM 82.9 °F 89.4 °F 73.9 °F 74% 30.10 in 10.0 mi East 11.5 mph - 0.00 in Rain Light Rain
12:53 PM 84.0 °F 89.6 °F 72.0 °F 67% 30.08 in 10.0 mi East 19.6 mph 24.2 mph 0.00 in   Mostly Cloudy
1:53 PM 84.0 °F 89.0 °F 71.1 °F 65% 30.06 in 10.0 mi ESE 17.3 mph 26.5 mph N/A   Mostly Cloudy
2:01 PM 80.6 °F 84.6 °F 71.6 °F 74% 30.07 in 0.5 mi ENE 26.5 mph 34.5 mph 0.07 in   Haze
2:10 PM 77.0 °F - 71.6 °F 83% 30.06 in 10.0 mi ENE 10.4 mph - 0.18 in Rain Rain
2:53 PM 84.0 °F 89.6 °F 72.0 °F 67% 30.04 in 10.0 mi East 17.3 mph - 0.18 in   Scattered Clouds
4:53 PM 81.0 °F 85.2 °F 72.0 °F 74% 30.03 in 10.0 mi ENE 11.5 mph - 0.02 in   Scattered Clouds
5:53 PM 81.0 °F 85.8 °F 73.0 °F 77% 30.03 in 10.0 mi East 9.2 mph - N/A   Overcast
6:53 PM 79.0 °F - 69.1 °F 72% 30.04 in 10.0 mi ENE 8.1 mph - 0.00 in   Scattered Clouds
7:53 PM 75.9 °F - 71.1 °F 85% 30.05 in 10.0 mi ENE 8.1 mph - 0.00 in Rain Light Rain
8:53 PM 78.1 °F - 72.0 °F 81% 30.06 in 10.0 mi NE 6.9 mph - 0.00 in   Scattered Clouds
9:53 PM 79.0 °F - 72.0 °F 79% 30.07 in 10.0 mi ENE 8.1 mph - 0.00 in   Partly Cloudy
10:53 PM 78.1 °F - 72.0 °F 81% 30.07 in 10.0 mi NE 8.1 mph - 0.00 in   Clear
11:53 PM 77.0 °F - 71.1 °F 82% 30.06 in 10.0 mi ENE 6.9 mph - 0.00 in   Partly Cloudy